Location: ??
(35.4032°N, 139.3073°E)
Time: 03:30:53
(UTC+00:00)

KORONAS-FOTON - Pass Details

Date: 13 April 2024
Orbit: 478 x 498 km, 82.4° (Epoch: 25 May)

Event Time Altitude Azimuth Distance (km) Brightness Sun altitude
Rises 19:10:58 0° 179° (S) 2,553 7.1 -12.7°
Reaches altitude 10° 19:13:05 10° 177° (S) 1,672 6.2 -12.3°
Maximum altitude 19:16:42 65° 95° (E) 538 4.1 -11.6°
Drops below altitude 10° 19:20:20 10° 13° (NNE) 1,671 6.8 -10.9°
Sets 19:22:26 0° 11° (N) 2,552 7.8 -10.5°
